Location: *
(40.7873°S, 98.7174°E)
Time: 09:00:27
(UTC+00:00)

Cosmos 1992 Rocket - Pass Details

Date: 24 May 2022
Orbit: 758 x 766 km, 74.0° (Epoch: 04 July)

Event Time Altitude Azimuth Distance (km) Brightness Sun altitude
Rises 11:29:49 0° 356° (N) 3,222 7.5 -14.9°
Reaches altitude 10° 11:32:13 10° 0° (N) 2,303 6.7 -15.3°
Maximum altitude 11:37:18 53° 76° (ENE) 943 4.1 -16.2°
Enters shadow 11:41:06 18° 147° (SSE) 1,838 5.6 -16.9°
